TimeEDT,TemperatureF,Dew PointF,Humidity,Sea Level PressureIn,VisibilityMPH,Wind Direction,Wind SpeedMPH,Gust SpeedMPH,PrecipitationIn,Events,Conditions,WindDirDegrees,DateUTC
12:32 AM,48.2,48.2,100,30.05,4.0,WNW,4.6,-,0.01,Rain,Light Rain,290,2012-10-08 04:32:00
12:42 AM,48.2,48.2,100,30.06,4.0,Variable,3.5,-,0.01,Rain,Light Rain,0,2012-10-08 04:42:00
12:52 AM,50.0,48.0,93,30.06,6.0,WNW,3.5,-,0.01,,Overcast,300,2012-10-08 04:52:00
1:05 AM,50.0,48.2,94,30.07,3.0,West,6.9,-,0.01,Rain,Light Rain,280,2012-10-08 05:05:00
1:17 AM,50.0,48.2,94,30.07,4.0,West,6.9,-,0.01,Rain,Light Rain,280,2012-10-08 05:17:00
1:27 AM,50.0,48.2,94,30.08,3.0,WNW,9.2,17.3,0.02,Rain,Light Rain,300,2012-10-08 05:27:00
1:39 AM,48.2,46.4,93,30.08,6.0,WNW,9.2,21.9,0.03,Rain,Light Rain,300,2012-10-08 05:39:00
1:52 AM,48.9,46.9,93,30.10,5.0,WNW,8.1,-,0.04,Rain,Rain,300,2012-10-08 05:52:00
2:09 AM,48.2,46.4,93,30.08,6.0,WNW,5.8,-,0.02,Rain,Light Rain,300,2012-10-08 06:09:00
2:16 AM,48.2,46.4,93,30.08,8.0,Variable,3.5,-,0.02,Rain,Light Rain,0,2012-10-08 06:16:00
2:52 AM,48.0,46.9,96,30.07,10.0,Variable,3.5,-,0.02,,Overcast,0,2012-10-08 06:52:00
3:52 AM,48.9,46.0,90,30.08,10.0,Variable,4.6,-,N/A,,Overcast,0,2012-10-08 07:52:00
4:52 AM,46.9,45.0,93,30.10,10.0,Calm,Calm,-,N/A,,Partly Cloudy,0,2012-10-08 08:52:00
5:17 AM,46.4,44.6,93,30.10,10.0,Calm,Calm,-,N/A,,Mostly Cloudy,0,2012-10-08 09:17:00
5:52 AM,46.0,44.1,93,30.12,10.0,Calm,Calm,-,N/A,,Mostly Cloudy,0,2012-10-08 09:52:00
6:52 AM,46.0,44.1,93,30.14,10.0,Calm,Calm,-,0.01,,Partly Cloudy,0,2012-10-08 10:52:00
7:15 AM,46.4,46.4,100,30.14,10.0,Calm,Calm,-,N/A,,Mostly Cloudy,0,2012-10-08 11:15:00
7:23 AM,48.2,46.4,93,30.14,10.0,Calm,Calm,-,N/A,,Mostly Cloudy,0,2012-10-08 11:23:00
7:52 AM,50.0,46.0,86,30.17,10.0,Calm,Calm,-,N/A,,Clear,0,2012-10-08 11:52:00
8:52 AM,53.1,46.9,80,30.19,10.0,Variable,3.5,-,N/A,,Partly Cloudy,0,2012-10-08 12:52:00
9:14 AM,53.6,46.4,77,30.20,10.0,North,5.8,-,N/A,,Mostly Cloudy,360,2012-10-08 13:14:00
9:52 AM,54.0,46.0,75,30.21,10.0,NNW,4.6,-,N/A,,Mostly Cloudy,330,2012-10-08 13:52:00
10:24 AM,53.6,46.4,77,30.22,10.0,Variable,5.8,-,N/A,,Mostly Cloudy,0,2012-10-08 14:24:00
10:52 AM,54.0,45.0,72,30.23,10.0,Variable,5.8,-,N/A,,Mostly Cloudy,0,2012-10-08 14:52:00
11:03 AM,55.4,44.6,67,30.23,10.0,NNE,5.8,-,N/A,,Scattered Clouds,20,2012-10-08 15:03:00
11:43 AM,55.4,44.6,67,30.24,10.0,North,4.6,-,N/A,,Mostly Cloudy,350,2012-10-08 15:43:00
11:52 AM,55.0,44.1,67,30.26,10.0,Variable,3.5,-,N/A,,Mostly Cloudy,0,2012-10-08 15:52:00
11:59 AM,55.4,44.6,67,30.25,10.0,Variable,3.5,-,N/A,,Mostly Cloudy,0,2012-10-08 15:59:00
12:08 PM,55.4,44.6,67,30.25,10.0,NNW,5.8,-,N/A,,Mostly Cloudy,330,2012-10-08 16:08:00
12:32 PM,55.4,44.6,67,30.26,10.0,NNW,3.5,-,N/A,,Mostly Cloudy,340,2012-10-08 16:32:00
12:52 PM,55.0,44.1,67,30.26,10.0,Calm,Calm,-,N/A,,Clear,0,2012-10-08 16:52:00
1:52 PM,55.9,44.1,64,30.26,10.0,NE,3.5,-,N/A,,Mostly Cloudy,40,2012-10-08 17:52:00
2:06 PM,55.4,42.8,63,30.25,10.0,Calm,Calm,-,N/A,,Overcast,0,2012-10-08 18:06:00
2:52 PM,55.0,44.1,67,30.27,10.0,Calm,Calm,-,N/A,,Overcast,0,2012-10-08 18:52:00
2:59 PM,55.4,44.6,67,30.26,10.0,Calm,Calm,-,N/A,,Overcast,0,2012-10-08 18:59:00
3:52 PM,54.0,46.0,75,30.27,10.0,Variable,3.5,-,N/A,,Overcast,0,2012-10-08 19:52:00
4:17 PM,53.6,46.4,77,30.27,10.0,North,3.5,-,N/A,,Overcast,350,2012-10-08 20:17:00
4:52 PM,54.0,46.0,75,30.27,10.0,Calm,Calm,-,N/A,,Scattered Clouds,0,2012-10-08 20:52:00
5:52 PM,53.1,46.0,77,30.30,10.0,North,3.5,-,N/A,,Mostly Cloudy,10,2012-10-08 21:52:00
6:52 PM,53.1,46.0,77,30.30,10.0,Calm,Calm,-,0.00,,Scattered Clouds,0,2012-10-08 22:52:00
8:52 PM,51.1,48.0,89,30.33,10.0,Calm,Calm,-,N/A,,Mostly Cloudy,0,2012-10-09 00:52:00
9:52 PM,52.0,48.9,89,30.32,10.0,Calm,Calm,-,N/A,,Overcast,0,2012-10-09 01:52:00
10:52 PM,54.0,46.0,75,30.31,10.0,ENE,4.6,-,N/A,,Mostly Cloudy,70,2012-10-09 02:52:00
11:52 PM,55.9,46.0,69,30.30,10.0,East,5.8,-,N/A,,Overcast,80,2012-10-09 03:52:00